Location: Charbonni�res
(45.9952°N, 2.9982°E)
Time: 18:19:29
(UTC+00:00)

Lacrosse 5 - Pass Details

Date: 29 November 2020
Orbit: 713 x 726 km, 57.0° (Epoch: 18 January)

Event Time Altitude Azimuth Distance (km) Brightness Sun altitude
Exits shadow 04:32:07 72° 171° (S) 750 1.9 -26.3°
Maximum altitude 04:32:25 75° 137° (SE) 741 1.9 -26.2°
Drops below altitude 10° 04:37:27 10° 53° (NE) 2,196 5.0 -25.4°
Sets 04:39:50 0° 52° (NE) 3,120 5.8 -25.0°
